TimeEST,TemperatureF,Dew PointF,Humidity,Sea Level PressureIn,VisibilityMPH,Wind Direction,Wind SpeedMPH,Gust SpeedMPH,PrecipitationIn,Events,Conditions,WindDirDegrees,DateUTC
12:15 AM,36.5,36.5,100,30.00,4.0,North,5.8,-,0.01,Rain,Rain,10,2013-02-08 05:15:00
12:35 AM,36.5,36.5,100,29.99,4.0,NNE,8.1,-,0.03,Rain,Rain,20,2013-02-08 05:35:00
12:55 AM,36.5,36.5,100,29.98,5.0,North,6.9,-,0.05,Rain,Light Rain,10,2013-02-08 05:55:00
1:15 AM,36.5,36.5,100,29.97,5.0,North,4.6,-,0.01,Rain,Rain,360,2013-02-08 06:15:00
1:35 AM,36.1,36.1,100,29.96,7.0,North,5.8,-,0.02,Rain,Light Rain,10,2013-02-08 06:35:00
1:55 AM,36.1,36.1,100,29.95,10.0,North,6.9,-,0.02,Rain,Light Rain,10,2013-02-08 06:55:00
2:15 AM,36.0,36.0,100,29.95,10.0,North,5.8,-,N/A,Rain,Light Rain,350,2013-02-08 07:15:00
2:35 AM,35.6,35.6,100,29.92,7.0,NNE,9.2,-,0.01,,Drizzle,20,2013-02-08 07:35:00
2:55 AM,35.6,35.6,100,29.91,10.0,North,5.8,-,0.01,Rain,Light Rain,10,2013-02-08 07:55:00
3:15 AM,35.6,35.6,100,29.91,10.0,NNE,5.8,-,N/A,,Light Drizzle,20,2013-02-08 08:15:00
3:35 AM,35.6,35.6,100,29.90,10.0,North,5.8,-,N/A,,Overcast,10,2013-02-08 08:35:00
3:55 AM,35.8,35.8,100,29.90,10.0,North,4.6,-,N/A,,Overcast,10,2013-02-08 08:55:00
4:35 AM,36.0,36.0,100,29.91,10.0,Calm,Calm,-,N/A,,Overcast,0,2013-02-08 09:35:00
4:55 AM,35.6,35.6,100,29.90,10.0,North,5.8,-,N/A,,Overcast,360,2013-02-08 09:55:00
5:15 AM,35.4,35.4,100,29.91,7.0,North,5.8,-,N/A,,Overcast,360,2013-02-08 10:15:00
5:35 AM,35.2,35.2,100,29.90,7.0,North,4.6,-,N/A,,Overcast,360,2013-02-08 10:35:00
5:55 AM,35.2,35.2,100,29.89,10.0,North,5.8,-,N/A,,Overcast,10,2013-02-08 10:55:00
6:15 AM,35.6,35.6,100,29.90,10.0,North,6.9,-,N/A,,Overcast,10,2013-02-08 11:15:00
6:35 AM,35.6,35.6,100,29.91,10.0,NNW,4.6,-,N/A,,Overcast,340,2013-02-08 11:35:00
7:15 AM,36.0,36.0,100,29.90,10.0,North,3.5,-,N/A,,Overcast,360,2013-02-08 12:15:00
7:35 AM,36.1,36.1,100,29.91,10.0,North,3.5,-,N/A,,Overcast,350,2013-02-08 12:35:00
7:55 AM,36.5,36.5,100,29.91,10.0,North,5.8,-,N/A,,Overcast,10,2013-02-08 12:55:00
8:15 AM,36.7,36.7,100,29.91,10.0,North,3.5,-,N/A,,Overcast,350,2013-02-08 13:15:00
8:35 AM,37.0,37.0,100,29.91,10.0,NNE,3.5,-,N/A,,Overcast,20,2013-02-08 13:35:00
8:55 AM,37.4,37.4,100,29.92,10.0,North,4.6,-,N/A,,Overcast,350,2013-02-08 13:55:00
9:15 AM,38.3,38.3,100,29.93,10.0,NNW,3.5,-,N/A,,Overcast,340,2013-02-08 14:15:00
9:35 AM,38.7,38.3,99,29.91,10.0,North,5.8,-,N/A,,Overcast,10,2013-02-08 14:35:00
9:55 AM,40.1,38.1,93,29.92,10.0,North,3.5,-,N/A,,Overcast,360,2013-02-08 14:55:00
10:15 AM,40.6,37.9,90,29.91,10.0,NNW,3.5,-,N/A,,Overcast,330,2013-02-08 15:15:00
10:35 AM,42.8,38.8,86,29.91,10.0,Calm,Calm,-,N/A,,Scattered Clouds,0,2013-02-08 15:35:00
10:55 AM,43.5,39.2,85,29.91,10.0,Calm,Calm,-,N/A,,Scattered Clouds,0,2013-02-08 15:55:00
11:15 AM,44.6,39.9,84,29.91,10.0,WNW,3.5,-,N/A,,Mostly Cloudy,290,2013-02-08 16:15:00
11:35 AM,45.3,39.7,81,29.91,10.0,West,3.5,-,N/A,,Overcast,280,2013-02-08 16:35:00
11:55 AM,46.6,40.8,80,29.90,10.0,Calm,Calm,-,N/A,,Overcast,0,2013-02-08 16:55:00
12:15 PM,49.5,41.7,75,29.88,10.0,WSW,5.8,-,N/A,,Scattered Clouds,240,2013-02-08 17:15:00
12:35 PM,49.6,41.2,73,29.87,10.0,WSW,5.8,-,N/A,,Scattered Clouds,240,2013-02-08 17:35:00
12:55 PM,52.2,42.6,70,29.86,10.0,West,5.8,-,N/A,,Scattered Clouds,280,2013-02-08 17:55:00
1:15 PM,54.0,42.8,66,29.86,10.0,SW,9.2,-,N/A,,Scattered Clouds,230,2013-02-08 18:15:00
1:35 PM,56.8,43.9,62,29.85,10.0,SW,8.1,-,N/A,,Scattered Clouds,230,2013-02-08 18:35:00
1:55 PM,56.3,43.5,62,29.85,10.0,West,6.9,-,N/A,,Mostly Cloudy,260,2013-02-08 18:55:00
2:15 PM,57.0,43.2,60,29.84,10.0,West,9.2,-,N/A,,Mostly Cloudy,280,2013-02-08 19:15:00
2:35 PM,57.0,43.3,60,29.84,10.0,WNW,4.6,16.1,N/A,,Overcast,290,2013-02-08 19:35:00
2:55 PM,55.9,42.8,61,29.85,10.0,WNW,5.8,-,N/A,,Overcast,290,2013-02-08 19:55:00
3:15 PM,56.3,42.8,61,29.84,10.0,WNW,4.6,-,N/A,,Scattered Clouds,300,2013-02-08 20:15:00
3:35 PM,57.0,43.2,60,29.85,10.0,WNW,6.9,-,N/A,,Clear,290,2013-02-08 20:35:00
3:55 PM,56.8,40.3,54,29.85,10.0,WNW,6.9,-,N/A,,Clear,290,2013-02-08 20:55:00
4:15 PM,56.3,36.5,47,29.86,10.0,West,6.9,16.1,N/A,,Clear,270,2013-02-08 21:15:00
4:35 PM,55.8,34.7,45,29.87,10.0,West,8.1,-,N/A,,Clear,270,2013-02-08 21:35:00
4:55 PM,55.9,32.2,41,29.87,10.0,West,9.2,-,N/A,,Clear,280,2013-02-08 21:55:00
5:15 PM,55.6,32.9,42,29.88,10.0,West,4.6,-,N/A,,Clear,270,2013-02-08 22:15:00
5:35 PM,54.1,32.0,43,29.89,10.0,WNW,5.8,-,N/A,,Clear,290,2013-02-08 22:35:00
5:55 PM,52.9,32.0,45,29.91,10.0,North,3.5,-,N/A,,Clear,350,2013-02-08 22:55:00
6:15 PM,51.4,31.8,47,29.92,10.0,WNW,4.6,-,N/A,,Clear,300,2013-02-08 23:15:00
6:35 PM,51.3,29.7,44,29.93,10.0,WNW,5.8,-,N/A,,Clear,300,2013-02-08 23:35:00
6:55 PM,50.7,28.8,43,29.95,10.0,WNW,4.6,-,N/A,,Clear,300,2013-02-08 23:55:00
7:15 PM,49.1,29.5,47,29.96,10.0,North,3.5,-,N/A,,Clear,360,2013-02-09 00:15:00
7:35 PM,47.5,28.4,48,29.98,10.0,NNW,5.8,-,N/A,,Clear,330,2013-02-09 00:35:00
7:55 PM,45.9,27.7,49,29.99,10.0,North,6.9,-,N/A,,Clear,350,2013-02-09 00:55:00
8:15 PM,44.4,27.5,52,30.01,10.0,NW,4.6,-,N/A,,Clear,320,2013-02-09 01:15:00
8:35 PM,43.3,27.3,53,30.02,10.0,North,4.6,-,N/A,,Clear,350,2013-02-09 01:35:00
8:55 PM,42.1,27.3,56,30.03,10.0,NW,4.6,-,N/A,,Clear,310,2013-02-09 01:55:00
9:15 PM,41.5,27.5,57,30.04,10.0,Calm,Calm,-,N/A,,Clear,0,2013-02-09 02:15:00
9:35 PM,40.8,27.7,60,30.05,10.0,Calm,Calm,-,N/A,,Clear,0,2013-02-09 02:35:00
9:55 PM,39.9,27.9,62,30.07,10.0,Calm,Calm,-,N/A,,Clear,0,2013-02-09 02:55:00
10:15 PM,39.7,27.7,62,30.07,10.0,Calm,Calm,-,N/A,,Clear,0,2013-02-09 03:15:00
10:35 PM,38.7,27.5,64,30.08,10.0,Calm,Calm,-,N/A,,Clear,0,2013-02-09 03:35:00
10:55 PM,37.6,27.5,67,30.08,10.0,Calm,Calm,-,N/A,,Clear,0,2013-02-09 03:55:00
11:15 PM,37.2,27.9,69,30.09,10.0,Calm,Calm,-,N/A,,Clear,0,2013-02-09 04:15:00
11:35 PM,37.6,27.5,67,30.09,10.0,NNW,3.5,-,N/A,,Clear,330,2013-02-09 04:35:00
11:55 PM,37.4,27.1,66,30.09,10.0,Calm,Calm,-,N/A,,Clear,0,2013-02-09 04:55:00